Location: Unspecified
(43.4000°N, 0.0000°E)
Time: 01:47:03
(UTC+00:00)

Oscar 11 - Visible Passes

Search period start: 20 August 2019 00:00
Search period end: 30 August 2019 00:00
Orbit: 612 x 626 km, 97.6° (Epoch: 19 August)

Date Brightness Start Highest point End Pass type
(mag) Time Alt. Az. Time Alt. Az. Time Alt. Az.
22 Aug 9.8 19:29:55 10° SW 19:33:11 21° W 19:36:28 10° NW visible
23 Aug 10.1 19:48:14 10° WSW 19:50:28 14° W 19:52:43 10° WNW visible
27 Aug 9.5 19:18:58 10° SSW 19:22:35 26° W 19:26:13 10° NW visible
28 Aug 9.9 19:36:57 10° SW 19:39:51 17° W 19:42:45 10° NW visible
29 Aug 10.3 19:55:43 10° WSW 19:57:08 11° W 19:58:33 10° WNW visible
